Weather Service Report


555 
ASUS45 KBOI 272210
RWRID 
WEATHER ROUNDUP FOR IDAHO
NATIONAL WEATHER SERVICE BOISE ID
400 PM MDT MON APR 27 2015

NOTE: "FAIR" INDICATES FEW OR NO CLOUDS BELOW 12000 FEET
WITH NO SIGNIFICANT WEATHER AND/OR OBSTRUCTIONS TO VISIBILITY

IDZ012-014-272300-
SOUTHWEST IDAHO

  
CITY           SKY/WX    TMP DP  RH WIND       PRES   REMARKS
BOISE          SUNNY     66  26  22 CALM      30.23F                  
CALDWELL       SUNNY     66  25  20 E7        30.25F                  
MOUNTAIN HOME  SUNNY     65  27  24 VRB5      30.23F                  
$$

IDZ016-017-272300-
SOUTHCENTRAL IDAHO

  
CITY           SKY/WX    TMP DP  RH WIND       PRES   REMARKS
BURLEY         SUNNY     60  25  26 CALM      30.24F                  
JEROME         SUNNY     60  24  25 E3        30.26F                  
TWIN FALLS     SUNNY     62  26  25 NW7       30.25F                  
$$

IDZ019>023-272300-
SOUTHEAST IDAHO

  
CITY           SKY/WX    TMP DP  RH WIND       PRES   REMARKS
IDAHO FALLS    MOSUNNY   59  24  26 SW7       30.26F                  
POCATELLO      MOSUNNY   60  24  25 NW12G23   30.26F                  
REXBURG        SUNNY     56  24  29 E5        30.26F                  
$$

IDZ006-010-011-018-031-032-272300-
CENTRAL IDAHO MOUNTAINS

  
CITY           SKY/WX    TMP DP  RH WIND       PRES   REMARKS
MCCALL         SUNNY     61  19  19 VRB3      30.25F                  
HAILEY         MOSUNNY   59  32  36 SE15      30.27F                  
STANLEY          N/A     61  16  17 MISG      30.27F                  
SALMON         SUNNY     57  28  33 NW6       30.26F                  
CHALLIS        SUNNY     57  24  28 CALM      30.26F                  
$$

IDZ002-004-006-007-026-272300-
NORTHERN IDAHO

  
CITY           SKY/WX    TMP DP  RH WIND       PRES   REMARKS
LEWISTON       SUNNY     71  34  25 NE7       30.24F                  
LOWELL           N/A     75  30  19 CALM      30.24F                  
COEUR D'ALENE  MOSUNNY   64  30  27 E5        30.28F                  
MULLAN PASS    PTSUNNY   50  22  33 VRB3      30.31F                  
$$

Return to Home page


Western Regional Climate Center, wrcc@dri.edu